| time (UTC) | temp F | wind direction | speed MPH | gust MPH | rain 1hr in | rain 24hr in | rain mn in | humidity % | barometer mb |
| 20260505023030 | 69 | 212 | 12.0 | 19.0 | 0.00 | 0.00 | 0.00 | 52 | 999.8 |
| 20260505021529 | 69 | 211 | 11.0 | 19.0 | 0.00 | 0.00 | 0.00 | 51 | 999.9 |
| 20260505020028 | 70 | 223 | 8.0 | 21.0 | 0.00 | 0.00 | 0.00 | 51 | 1000.0 |
| 20260505014528 | 70 | 209 | 9.0 | 18.0 | 0.00 | 0.00 | 0.00 | 50 | 999.8 |
| 20260505013027 | 71 | 208 | 12.0 | 20.0 | 0.00 | 0.00 | 0.00 | 48 | 999.6 |
| 20260505011528 | 71 | 208 | 10.0 | 18.0 | 0.00 | 0.00 | 0.00 | 49 | 999.4 |
| 20260505010026 | 71 | 200 | 11.0 | 19.0 | 0.00 | 0.00 | 0.00 | 48 | 999.3 |
| 20260505004526 | 72 | 192 | 10.0 | 19.0 | 0.00 | 0.00 | 0.00 | 47 | 999.3 |
| 20260505003025 | 72 | 219 | 8.0 | 14.0 | 0.00 | 0.00 | 0.00 | 48 | 999.4 |
| 20260505001524 | 73 | 187 | 7.0 | 13.0 | 0.00 | 0.00 | 0.00 | 48 | 999.3 |
| 20260505000026 | 73 | 236 | 8.0 | 19.0 | 0.00 | 0.00 | 0.00 | 49 | 999.2 |
| 20260504234522 | 73 | 218 | 8.0 | 19.0 | 0.00 | 0.00 | 0.00 | 49 | 999.1 |
| 20260504233021 | 74 | 220 | 10.0 | 18.0 | 0.00 | 0.00 | 0.00 | 49 | 999.2 |
| 20260504231520 | 73 | 209 | 10.0 | 21.0 | 0.00 | 0.00 | 0.00 | 53 | 999.5 |
| 20260504230017 | 73 | 217 | 9.0 | 24.0 | 0.00 | 0.00 | 0.00 | 52 | 999.9 |
| 20260504224517 | 73 | 235 | 12.0 | 21.0 | 0.00 | 0.00 | 0.00 | 54 | 1000.2 |
| 20260504223015 | 73 | 208 | 11.0 | 22.0 | 0.00 | 0.00 | 0.00 | 54 | 1000.5 |
| 20260504214509 | 72 | 217 | 11.0 | 20.0 | 0.00 | 0.00 | 0.00 | 53 | 1000.8 |
| 20260504213008 | 73 | 214 | 11.0 | 23.0 | 0.00 | 0.00 | 0.00 | 52 | 1000.9 |
| 20260504211502 | 71 | 207 | 9.0 | 20.0 | 0.00 | 0.00 | 0.00 | 53 | 1001.0 |
| 20260504210004 | 72 | 207 | 16.0 | 26.0 | 0.00 | 0.00 | 0.00 | 49 | 1000.9 |
| 20260504204503 | 74 | 209 | 13.0 | 20.0 | 0.00 | 0.00 | 0.00 | 47 | 1001.1 |
| 20260504203001 | 74 | 227 | 15.0 | 24.0 | 0.00 | 0.00 | 0.00 | 44 | 1000.9 |
| 20260504201632 | 75 | 241 | 16.0 | 28.0 | 0.00 | 0.00 | 0.00 | 45 | 1000.8 |
| 20260504193049 | 74 | 268 | 20.0 | 31.0 | 0.00 | 0.03 | 0.00 | 46 | 1001.3 |
| 20260504191554 | 74 | 254 | 9.0 | 25.0 | 0.00 | 0.03 | 0.00 | 49 | 1001.3 |
| 20260504190052 | 75 | 256 | 14.0 | 30.0 | 0.00 | 0.03 | 0.00 | 48 | 1001.5 |
| 20260504184557 | 75 | 267 | 18.0 | 40.0 | 0.00 | 0.09 | 0.00 | 46 | 1001.6 |
| 20260504183050 | 75 | 217 | 14.0 | 30.0 | 0.00 | 0.09 | 0.00 | 47 | 1001.5 |
| 20260504181547 | 75 | 257 | 13.0 | 29.0 | 0.00 | 0.09 | 0.00 | 48 | 1001.7 |
| 20260504180038 | 74 | 229 | 13.0 | 26.0 | 0.00 | 0.09 | 0.00 | 49 | 1001.6 |
| 20260504174535 | 73 | 218 | 14.0 | 29.0 | 0.00 | 0.09 | 0.00 | 51 | 1001.7 |
| 20260504173033 | 72 | 205 | 14.0 | 29.0 | 0.00 | 0.09 | 0.00 | 54 | 1001.8 |
| 20260504171529 | 72 | 223 | 12.0 | 27.0 | 0.00 | 0.09 | 0.00 | 53 | 1001.8 |
| 20260504081536 | 52 | 203 | 13.0 | 18.0 | 0.00 | 0.09 | 0.00 | 73 | 1005.3 |
| 20260504050005 | 53 | 212 | 10.0 | 13.0 | 0.00 | 0.09 | 0.00 | 70 | 1007.1 |
| 20260504044508 | 53 | 201 | 10.0 | 17.0 | 0.00 | 0.09 | 0.00 | 72 | 1007.2 |
| 20260504043102 | 52 | 202 | 12.0 | 16.0 | 0.00 | 0.09 | 0.00 | 75 | 1007.2 |
| 20260504041557 | 52 | 201 | 11.0 | 15.0 | 0.00 | 0.09 | 0.00 | 74 | 1007.4 |
| 20260504040104 | 52 | 207 | 11.0 | 14.0 | 0.00 | 0.09 | 0.00 | 74 | 1007.5 |
| 20260504034600 | 53 | 216 | 11.0 | 14.0 | 0.00 | 0.09 | 0.09 | 74 | 1007.6 |
| 20260504033125 | 53 | 205 | 9.0 | 12.0 | 0.00 | 0.09 | 0.09 | 73 | 1007.9 |
| 20260504031549 | 53 | 198 | 9.0 | 11.0 | 0.00 | 0.09 | 0.09 | 74 | 1008.0 |
| 20260504030049 | 52 | 209 | 9.0 | 12.0 | 0.00 | 0.09 | 0.09 | 74 | 1008.1 |
| 20260504024549 | 53 | 207 | 8.0 | 11.0 | 0.00 | 0.09 | 0.09 | 73 | 1008.1 |